TimeMST,TemperatureF,Dew PointF,Humidity,Sea Level PressureIn,VisibilityMPH,Wind Direction,Wind SpeedMPH,Gust SpeedMPH,PrecipitationIn,Events,Conditions,WindDirDegrees,DateUTC
12:55 AM,37.0,28.0,70,29.93,10.0,West,10.4,-,N/A,,Clear,280,2013-01-16 07:55:00
1:55 AM,36.0,27.0,70,29.94,10.0,WNW,3.5,-,N/A,,Mostly Cloudy,290,2013-01-16 08:55:00
2:55 AM,37.9,28.9,70,29.94,10.0,WNW,18.4,-,N/A,,Overcast,290,2013-01-16 09:55:00
3:55 AM,39.0,28.0,65,29.94,10.0,WNW,20.7,26.5,N/A,,Overcast,300,2013-01-16 10:55:00
4:55 AM,37.9,28.0,68,29.94,10.0,West,15.0,-,N/A,,Mostly Cloudy,280,2013-01-16 11:55:00
5:55 AM,37.9,27.0,65,29.95,10.0,WNW,11.5,-,N/A,,Clear,290,2013-01-16 12:55:00
6:55 AM,37.0,27.0,67,29.96,10.0,West,12.7,-,N/A,,Mostly Cloudy,270,2013-01-16 13:55:00
7:55 AM,37.0,27.0,67,29.98,10.0,West,13.8,-,N/A,,Mostly Cloudy,260,2013-01-16 14:55:00
8:55 AM,41.0,27.0,57,29.99,10.0,WNW,18.4,24.2,N/A,,Scattered Clouds,290,2013-01-16 15:55:00
9:55 AM,41.0,27.0,57,30.01,10.0,WNW,20.7,-,N/A,,Mostly Cloudy,300,2013-01-16 16:55:00
10:55 AM,41.0,28.0,60,30.03,10.0,WNW,17.3,-,N/A,,Overcast,290,2013-01-16 17:55:00
11:55 AM,42.1,28.0,58,30.03,10.0,WNW,20.7,26.5,N/A,,Clear,300,2013-01-16 18:55:00
12:55 PM,42.1,28.9,60,30.05,10.0,WNW,17.3,-,N/A,,Scattered Clouds,290,2013-01-16 19:55:00
1:55 PM,42.1,30.0,62,30.09,10.0,WNW,15.0,-,N/A,,Mostly Cloudy,300,2013-01-16 20:55:00
2:55 PM,43.0,30.0,60,30.12,10.0,NW,11.5,-,N/A,,Partly Cloudy,310,2013-01-16 21:55:00
3:55 PM,39.0,30.0,70,30.15,10.0,West,5.8,-,N/A,,Clear,260,2013-01-16 22:55:00
4:55 PM,37.0,28.9,73,30.17,10.0,NNW,9.2,-,N/A,,Mostly Cloudy,330,2013-01-16 23:55:00
5:55 PM,35.1,28.9,78,30.20,10.0,West,8.1,-,N/A,,Overcast,270,2013-01-17 00:55:00
6:55 PM,33.1,28.0,82,30.22,10.0,Calm,Calm,-,N/A,,Clear,0,2013-01-17 01:55:00
7:55 PM,33.1,27.0,78,30.22,10.0,WNW,6.9,-,N/A,,Partly Cloudy,300,2013-01-17 02:55:00
8:55 PM,34.0,26.1,73,30.22,10.0,WNW,10.4,-,N/A,,Clear,300,2013-01-17 03:55:00
9:55 PM,35.1,26.1,70,30.25,10.0,NW,13.8,-,N/A,,Scattered Clouds,310,2013-01-17 04:55:00
10:55 PM,37.0,27.0,67,30.26,10.0,NW,10.4,-,N/A,,Overcast,310,2013-01-17 05:55:00
11:55 PM,36.0,27.0,70,30.28,10.0,WNW,5.8,-,N/A,,Overcast,290,2013-01-17 06:55:00